When you browse on this site, cookies collect data to enhance your experience and personalize the content and advertising you see.
Visit our Privacy Policy to learn more. By continuing to use the site, you agree to this use of cookies and data.
EN

Hourly Weather Sidi Bu-l-Abbas

Today, 4 July, Saturday

Time Temperature Precipitation Wind Pressure Humidity
00:00 +22°C° 0 mm 0 mps 723 mmHg 55%
01:00 +22°C° 0 mm 0 mps 723 mmHg 55%
02:00 +21°C° 0 mm 0 mps 722 mmHg 56%
03:00 +21°C° 0 mm 0 mps 722 mmHg 56%
04:00 +23°C° 0 mm 1 mps 722 mmHg 55%
05:00 +24°C° 0 mm 1 mps 722 mmHg 54%
06:00 +25°C° 0 mm 1 mps 723 mmHg 54%
07:00 +27°C° 0 mm 2 mps 723 mmHg 44%
08:00 +29°C° 0 mm 2 mps 723 mmHg 34%
09:00 +32°C° 0 mm 2 mps 724 mmHg 24%
10:00 +34°C° 0 mm 3 mps 724 mmHg 22%
11:00 +36°C° 0 mm 3 mps 724 mmHg 19%
12:00 +38°C° 0 mm 3 mps 724 mmHg 17%
13:00 +38°C° 0 mm 4 mps 724 mmHg 17%
14:00 +40°C° 0 mm 5 mps 723 mmHg 18%
15:00 +40°C° 0 mm 5 mps 723 mmHg 18%
16:00 +39°C° 0 mm 5 mps 723 mmHg 22%
17:00 +36°C° 0 mm 6 mps 723 mmHg 25%
18:00 +35°C° 0 mm 6 mps 722 mmHg 28%
19:00 +33°C° 0 mm 5 mps 722 mmHg 31%
20:00 +30°C° 0 mm 3 mps 722 mmHg 35%
21:00 +29°C° 0 mm 2 mps 723 mmHg 38%
22:00 +28°C° 0 mm 2 mps 723 mmHg 38%
23:00 +28°C° 0 mm 2 mps 723 mmHg 39%

Tomorrow, 5 July, Sunday

Time Temperature Precipitation Wind Pressure Humidity
00:00 +27°C° 0 mm 1 mps 723 mmHg 39%
01:00 +26°C° 0 mm 1 mps 723 mmHg 40%
02:00 +26°C° 0 mm 1 mps 722 mmHg 41%
03:00 +23°C° 0 mm 0 mps 722 mmHg 42%
04:00 +24°C° 0 mm 0 mps 722 mmHg 41%
05:00 +26°C° 0 mm 1 mps 722 mmHg 39%
06:00 +27°C° 0 mm 1 mps 722 mmHg 38%
07:00 +30°C° 0 mm 2 mps 723 mmHg 31%
08:00 +32°C° 0 mm 2 mps 723 mmHg 24%
09:00 +35°C° 0 mm 3 mps 723 mmHg 17%
10:00 +37°C° 0 mm 3 mps 723 mmHg 15%
11:00 +38°C° 0 mm 4 mps 723 mmHg 13%
12:00 +41°C° 0 mm 4 mps 723 mmHg 11%
13:00 +41°C° 0 mm 4 mps 723 mmHg 11%
14:00 +42°C° 0 mm 5 mps 723 mmHg 12%
15:00 +42°C° 0 mm 5 mps 722 mmHg 12%
16:00 +41°C° 0 mm 6 mps 722 mmHg 14%
17:00 +39°C° 0 mm 6 mps 721 mmHg 17%
18:00 +38°C° 0 mm 6 mps 721 mmHg 19%
19:00 +35°C° 0 mm 4 mps 721 mmHg 23%
20:00 +33°C° 0 mm 3 mps 721 mmHg 27%
21:00 +30°C° 0 mm 2 mps 721 mmHg 31%
22:00 +29°C° 0 mm 1 mps 721 mmHg 33%
23:00 +28°C° 0 mm 1 mps 721 mmHg 34%

Day after tomorrow, 6 July, Monday

Time Temperature Precipitation Wind Pressure Humidity
00:00 +25°C° 0 mm 0 mps 721 mmHg 36%
01:00 +25°C° 0 mm 0 mps 721 mmHg 38%
02:00 +24°C° 0 mm 0 mps 720 mmHg 41%
03:00 +25°C° 0 mm 1 mps 720 mmHg 43%
04:00 +26°C° 0 mm 1 mps 720 mmHg 43%
05:00 +26°C° 0 mm 1 mps 720 mmHg 42%
06:00 +25°C° 0 mm 0 mps 720 mmHg 42%
07:00 +29°C° 0 mm 1 mps 720 mmHg 35%
08:00 +32°C° 0 mm 1 mps 721 mmHg 27%
09:00 +35°C° 0 mm 2 mps 721 mmHg 20%
10:00 +37°C° 0 mm 2 mps 721 mmHg 18%
11:00 +38°C° 0 mm 3 mps 721 mmHg 16%
12:00 +40°C° 0 mm 3 mps 721 mmHg 14%
13:00 +41°C° 0 mm 4 mps 720 mmHg 14%
14:00 +41°C° 0 mm 5 mps 720 mmHg 14%
15:00 +41°C° 0 mm 5 mps 720 mmHg 15%
16:00 +40°C° 0 mm 5 mps 720 mmHg 16%
17:00 +38°C° 0 mm 4 mps 719 mmHg 18%
18:00 +37°C° 0 mm 4 mps 719 mmHg 20%
19:00 +34°C° 0 mm 3 mps 719 mmHg 24%
20:00 +31°C° 0 mm 2 mps 719 mmHg 29%
21:00 +26°C° 0 mm 0 mps 719 mmHg 33%
22:00 +26°C° 0 mm 0 mps 719 mmHg 35%
23:00 +27°C° 0 mm 1 mps 719 mmHg 37%

7 July, Tuesday

Time Temperature Precipitation Wind Pressure Humidity
00:00 +26°C° 0 mm 1 mps 719 mmHg 39%
01:00 +26°C° 0 mm 1 mps 719 mmHg 41%
02:00 +25°C° 0 mm 1 mps 718 mmHg 44%
03:00 +24°C° 0 mm 1 mps 718 mmHg 46%
04:00 +25°C° 0 mm 1 mps 718 mmHg 44%
05:00 +26°C° 0 mm 1 mps 719 mmHg 41%
06:00 +27°C° 0 mm 1 mps 719 mmHg 39%
07:00 +29°C° 0 mm 1 mps 719 mmHg 33%
08:00 +32°C° 0 mm 1 mps 720 mmHg 26%
09:00 +34°C° 0 mm 1 mps 720 mmHg 19%
10:00 +37°C° 0 mm 2 mps 720 mmHg 17%
11:00 +39°C° 0 mm 2 mps 720 mmHg 15%
12:00 +40°C° 0 mm 3 mps 720 mmHg 13%
13:00 +41°C° 0 mm 4 mps 720 mmHg 14%
14:00 +42°C° 0 mm 5 mps 720 mmHg 14%
15:00 +42°C° 0 mm 5 mps 719 mmHg 14%
16:00 +41°C° 0 mm 5 mps 719 mmHg 16%
17:00 +40°C° 0 mm 4 mps 719 mmHg 17%
18:00 +37°C° 0 mm 3 mps 719 mmHg 19%
19:00 +35°C° 0 mm 2 mps 719 mmHg 24%
20:00 +32°C° 0 mm 1 mps 719 mmHg 30%
21:00 +29°C° 0 mm 1 mps 720 mmHg 36%
22:00 +29°C° 0 mm 1 mps 719 mmHg 38%
23:00 +26°C° 0 mm 0 mps 719 mmHg 40%

8 July, Wednesday

Time Temperature Precipitation Wind Pressure Humidity
00:00 +25°C° 0 mm 0 mps 719 mmHg 42%
01:00 +25°C° 0 mm 0 mps 719 mmHg 43%
02:00 +24°C° 0 mm 0 mps 718 mmHg 45%
03:00 +25°C° 0 mm 1 mps 718 mmHg 46%
04:00 +26°C° 0 mm 1 mps 718 mmHg 45%
05:00 +27°C° 0 mm 1 mps 719 mmHg 45%
06:00 +27°C° 0 mm 1 mps 719 mmHg 44%
07:00 +29°C° 0 mm 1 mps 719 mmHg 38%
08:00 +32°C° 0 mm 1 mps 720 mmHg 31%
09:00 +34°C° 0 mm 1 mps 720 mmHg 24%
10:00 +37°C° 0 mm 1 mps 720 mmHg 21%
11:00 +40°C° 0 mm 2 mps 720 mmHg 17%
12:00 +42°C° 0 mm 2 mps 720 mmHg 13%
13:00 +43°C° 0 mm 3 mps 720 mmHg 15%
14:00 +43°C° 0 mm 5 mps 719 mmHg 17%
15:00 +42°C° 0 mm 6 mps 719 mmHg 19%
16:00 +40°C° 0 mm 5 mps 718 mmHg 26%
17:00 +36°C° 0 mm 5 mps 718 mmHg 33%
18:00 +34°C° 0 mm 4 mps 718 mmHg 39%
19:00 +32°C° 0 mm 4 mps 718 mmHg 46%
20:00 +29°C° 0 mm 3 mps 718 mmHg 52%
21:00 +27°C° 0 mm 3 mps 719 mmHg 59%
22:00 +26°C° 0 mm 3 mps 719 mmHg 63%
23:00 +25°C° 0 mm 4 mps 719 mmHg 68%

9 July, Thursday

Time Temperature Precipitation Wind Pressure Humidity
00:00 +23°C° 0 mm 4 mps 719 mmHg 73%
01:00 +24°C° 0 mm 3 mps 719 mmHg 75%
02:00 +22°C° 0 mm 3 mps 718 mmHg 77%
03:00 +22°C° 0 mm 3 mps 718 mmHg 79%
04:00 +22°C° 0 mm 3 mps 719 mmHg 80%
05:00 +22°C° 0 mm 3 mps 719 mmHg 82%
06:00 +22°C° 0 mm 3 mps 719 mmHg 83%
07:00 +24°C° 0 mm 3 mps 720 mmHg 75%
08:00 +25°C° 0 mm 4 mps 720 mmHg 66%
09:00 +27°C° 0 mm 5 mps 720 mmHg 58%
10:00 +28°C° 0 mm 4 mps 720 mmHg 54%
11:00 +29°C° 0 mm 4 mps 720 mmHg 50%
12:00 +30°C° 0 mm 4 mps 721 mmHg 46%
13:00 +32°C° 0 mm 5 mps 720 mmHg 45%
14:00 +32°C° 0 mm 5 mps 720 mmHg 44%
15:00 +32°C° 0 mm 6 mps 719 mmHg 43%
16:00 +30°C° 0 mm 5 mps 719 mmHg 46%
17:00 +29°C° 0 mm 5 mps 719 mmHg 49%
18:00 +28°C° 0 mm 4 mps 719 mmHg 53%
19:00 +27°C° 0.1 mm 3 mps 719 mmHg 58%
20:00 +26°C° 0.1 mm 2 mps 720 mmHg 64%
21:00 +25°C° 0.1 mm 2 mps 720 mmHg 70%
22:00 +25°C° 0.1 mm 2 mps 720 mmHg 73%
23:00 +24°C° 0.1 mm 2 mps 720 mmHg 76%
Show more